Location: Ch�risy
(50.2331°N, 2.9131°E)
Time: 19:02:38
(UTC+00:00)

Meteor 1-24 Rocket - Pass Details

Date: 17 January 2021
Orbit: 791 x 927 km, 81.3° (Epoch: 27 February)

Event Time Altitude Azimuth Distance (km) Brightness Sun altitude
Rises 18:09:23 0° 193° (SSW) 3,331 7.1 -17.4°
Reaches altitude 10° 18:11:47 10° 195° (SSW) 2,388 6.4 -17.7°
Maximum altitude 18:17:10 81° 282° (WNW) 814 3.6 -18.6°
Drops below altitude 10° 18:22:30 10° 11° (N) 2,369 5.8 -19.4°
Enters shadow 18:24:51 - 12° (NNE) 3,292 6.6 -19.8°
